Weather in Desyatnikovo

Russia / Republic of Buryatia     51°25′05″N   107°27′00″E
temp.,
°C
wind,
m/s
gust,
m/s
humid.,
%
clouds,
%
prec.,
mm/h
press.,
hPa
HPBL,
m
26 september, sun
sun2623:00+2wsw3493100 0.0 1016308
02:00+1wsw4799100 0.7 1017267
05:00+1wsw5999100 2.1 1017311
08:00+1w7119052 2.8 1018744
11:00+4w787396 0.0 1018909
14:00+6w676247 0.0 10171140
17:00+5w45555 0.0 10161075
20:00+1s2279100 0.0 101812
27 september, mon
mon2723:00+1sse217695 0.0 101613
02:00−1sse227851 0.0 101512
05:00−1se11835 0.0 101310
08:00+1sse007626 0.0 101351
11:00+6n2161100 0.0 1010577
14:00+8n2253100 0.0 1008983
17:00+5w2369100 1.0 1010237
20:00+2wnw1276100 1.1 101211
28 september, tue
tue2823:000w118283 0.0 101410
02:00−1sw118872 0.0 101410
05:00−1wsw2290100 0.0 101630
08:000nw2680100 0.0 1017320
11:00+3nw6856100 0.1 10181584
14:00+3wnw7954100 0.2 10181749
17:00+3wnw6105777 0.2 10181477
20:00−1sw228053 0.2 102013
29 september, wed
wed2923:00−2sw228777 0.0 102023
02:00−2sw338574 0.0 102039
05:00−2sw228677 0.0 102023
08:00−1sw238093 0.0 1019140
11:00+3wnw5766100 0.1 10181267
14:00+4wnw6853100 0.4 10161562
17:00+3nw465496 0.2 10171355
20:000w2276100 0.3 101826
30 september, thu
thu3023:00−1wsw228684 0.0 101921
02:00−3wsw22925 0.0 101910
05:00−4ssw22935 0.0 102011
08:00−2ssw22845 0.0 102097
11:00+3w445524 0.0 10181044
14:00+6wnw444586 0.0 10151616
17:00+6nw335039 0.0 10151045
20:000ene11785 0.0 101710